Hourly Data Report for July 20, 2021

KUGLUKTUK A
NUNAVUT
Current Station Operator: NAVCAN

67°49'00.000" N
115°08'38.000" W
22.60 m
2300903
71938
YCO

Download Data

Hourly Data (July 2021)
Hourly Data Report for July 20, 2021
TIME
LST
Temp Definition
°C
Dew Point Definition
°C
Rel Hum Definition
%
Precip. Amount Definition
mm

Wind Dir Definition
10's deg

Wind Spd Definition
km/h
Visibility Definition
km
Stn Press Definition
kPa
Hmdx Definition


Wind Chill Definition


Weather Definition


00:00 10.7 8.2 85   22 7 24.1 101.83     LegendNANA
01:00 10.4 8.3 87   26 7 24.1 101.82     LegendNANA
02:00 9.8 8.2 89   21 7 24.1 101.80     Cloudy
03:00 10.0 8.3 89   19 8 24.1 101.79     LegendNANA
04:00 9.9 8.2 89   20 6 24.1 101.78     LegendNANA
05:00 10.5 8.6 88   20 8 24.1 101.78     Cloudy
06:00 11.6 8.8 83   21 8 24.1 101.76     LegendNANA
07:00 13.5 9.5 77   28 9 24.1 101.75     LegendNANA
08:00 14.1 9.3 73   28 10 24.1 101.74     Clear
09:00 15.5 9.3 67   24 7 24.1 101.70     LegendNANA
10:00 15.6 8.3 62   24 7 24.1 101.66     LegendNANA
11:00 17.2 8.2 55   21 9 24.1 101.62     Mainly Clear
12:00 18.2 8.4 52   16 4 24.1 101.58     LegendNANA
13:00 18.3 9.8 57   10 4 24.1 101.53     LegendNANA
14:00 18.9 10.3 57   9 19 24.1 101.46     Mostly Cloudy
15:00 18.6 9.6 55   8 18 24.1 101.42     LegendNANA
16:00 18.9 10.6 58   9 18 24.1 101.38     LegendNANA
17:00 19.0 10.4 57   9 20 24.1 101.34     Mainly Clear
18:00 19.5 10.0 54   10 18 24.1 101.29     LegendNANA
19:00 19.8 10.2 54   10 14 24.1 101.25     LegendNANA
20:00 19.4 11.2 58   11 11 24.1 101.20     Clear
21:00 18.2 11.6 65   12 11 24.1 101.17     LegendNANA
22:00 16.6 10.8 68   14 10 24.1 101.13     LegendNANA
23:00 15.1 10.9 76   16 8 24.1 101.10     Clear

Notes on Data Quality.

Legend

  • E = Estimated
  • M = Missing
  • NA = Not Available*
  • [empty] = Indicates an unobserved value
Date modified: